timestamp,wind_dir_avg,wind_spd_avg,wind_spd_max_dir,wind_spd_gust,battery_voltage,lat,long
2021-03-20 00:04:01+00:00,207.0,7.98,219.0,9.36,12.49,47.59359,-54.27349
2021-03-20 00:14:01+00:00,211.0,7.01,231.0,8.86,12.41,47.59359,-54.27349
2021-03-20 00:24:01+00:00,213.0,4.07,217.0,6.23,12.41,47.59359,-54.27349
2021-03-20 00:34:01+00:00,330.0,5.83,321.0,7.1,12.41,47.59359,-54.27349
2021-03-20 00:44:01+00:00,325.0,5.43,313.0,6.87,12.41,47.59359,-54.27349
2021-03-20 00:54:01+00:00,321.0,5.27,307.0,7.18,12.41,47.59359,-54.27349
2021-03-20 01:04:01+00:00,327.0,6.46,331.0,7.32,12.41,47.59359,-54.27349
2021-03-20 01:14:01+00:00,322.0,10.52,322.0,11.54,12.41,47.59359,-54.27349
2021-03-20 01:24:01+00:00,334.0,9.43,323.0,11.01,12.41,47.59359,-54.27349
2021-03-20 01:34:01+00:00,343.0,10.51,1.0,13.12,12.41,47.59359,-54.27349
2021-03-20 01:44:01+00:00,330.0,8.66,325.0,10.08,12.41,47.59359,-54.27349
2021-03-20 01:54:01+00:00,1.0,9.47,345.0,10.99,12.41,47.59359,-54.27349
2021-03-20 02:04:01+00:00,10.0,8.11,4.0,9.23,12.41,47.59359,-54.27349
2021-03-20 02:14:01+00:00,4.0,8.67,340.0,10.1,12.41,47.59359,-54.27349
2021-03-20 02:24:01+00:00,352.0,8.99,338.0,11.13,12.41,47.59359,-54.27349
2021-03-20 02:34:01+00:00,352.0,10.63,345.0,12.83,12.41,47.59359,-54.27349
2021-03-20 02:44:01+00:00,4.0,9.54,349.0,11.14,12.41,47.59359,-54.27349
2021-03-20 02:54:01+00:00,358.0,10.84,358.0,12.14,12.41,47.59359,-54.27349
2021-03-20 03:04:01+00:00,357.0,10.71,356.0,12.29,12.41,47.59359,-54.27349
2021-03-20 03:14:01+00:00,358.0,8.38,3.0,9.64,12.41,47.59359,-54.27349
2021-03-20 03:24:01+00:00,358.0,7.25,356.0,7.94,12.41,47.59359,-54.27349
2021-03-20 03:34:01+00:00,358.0,9.12,356.0,10.55,12.41,47.59359,-54.27349
2021-03-20 03:44:01+00:00,355.0,8.71,356.0,9.8,12.41,47.59359,-54.27349
2021-03-20 03:54:01+00:00,359.0,7.81,2.0,8.58,12.41,47.59359,-54.27349
2021-03-20 04:04:01+00:00,357.0,7.88,2.0,8.93,12.41,47.59359,-54.27349
2021-03-20 04:14:01+00:00,4.0,9.13,6.0,10.29,12.33,47.59359,-54.27349
2021-03-20 04:24:01+00:00,359.0,8.93,0.0,9.84,12.33,47.59359,-54.27349
2021-03-20 04:34:01+00:00,359.0,7.88,352.0,8.76,12.33,47.59359,-54.27349
2021-03-20 04:44:01+00:00,356.0,7.52,350.0,8.62,12.33,47.59359,-54.27349
2021-03-20 04:54:01+00:00,0.0,6.08,354.0,7.53,12.33,47.59359,-54.27349
2021-03-20 05:04:01+00:00,343.0,7.87,343.0,8.71,12.33,47.59359,-54.27349
2021-03-20 05:14:01+00:00,335.0,7.18,324.0,8.23,12.33,47.59359,-54.27349
2021-03-20 05:24:01+00:00,330.0,8.34,317.0,10.32,12.33,47.59359,-54.27349
2021-03-20 05:34:01+00:00,327.0,7.97,326.0,9.37,12.33,47.59359,-54.27349
2021-03-20 05:44:01+00:00,326.0,11.67,325.0,12.62,12.33,47.59359,-54.27349
2021-03-20 05:54:01+00:00,341.0,10.4,342.0,12.13,12.33,47.59359,-54.27349
2021-03-20 06:04:01+00:00,338.0,9.99,345.0,11.13,12.33,47.59359,-54.27349
2021-03-20 06:14:01+00:00,318.0,9.56,326.0,11.67,12.33,47.59359,-54.27349
2021-03-20 06:24:01+00:00,325.0,8.99,328.0,10.18,12.33,47.59359,-54.27349
2021-03-20 06:34:01+00:00,325.0,8.41,320.0,11.09,12.33,47.59359,-54.27349
2021-03-20 06:44:01+00:00,327.0,8.33,327.0,9.32,12.33,47.59359,-54.27349
2021-03-20 06:54:01+00:00,323.0,7.42,328.0,8.95,12.33,47.59359,-54.27349
2021-03-20 07:04:01+00:00,329.0,8.73,332.0,10.13,12.33,47.59359,-54.27349
2021-03-20 07:14:01+00:00,333.0,9.14,338.0,10.53,12.25,47.59359,-54.27349
2021-03-20 07:24:01+00:00,326.0,8.84,318.0,11.2,12.25,47.59359,-54.27349
2021-03-20 07:34:01+00:00,326.0,7.81,318.0,9.79,12.25,47.59359,-54.27349
2021-03-20 07:44:01+00:00,311.0,10.23,302.0,14.56,12.25,47.59359,-54.27349
2021-03-20 07:54:01+00:00,308.0,12.89,304.0,16.79,12.25,47.59359,-54.27349
2021-03-20 08:04:01+00:00,310.0,13.12,302.0,16.62,12.25,47.59359,-54.27349
2021-03-20 08:14:01+00:00,320.0,10.84,312.0,13.1,12.25,47.59359,-54.27349
2021-03-20 08:24:01+00:00,315.0,12.28,302.0,16.47,12.25,47.59359,-54.27349
2021-03-20 08:34:01+00:00,313.0,11.9,307.0,15.17,12.25,47.59359,-54.27349
2021-03-20 08:44:01+00:00,314.0,12.35,305.0,15.57,12.25,47.59359,-54.27349
2021-03-20 08:54:01+00:00,314.0,11.74,301.0,15.94,12.25,47.59359,-54.27349
2021-03-20 09:04:01+00:00,314.0,12.43,303.0,16.0,12.25,47.59359,-54.27349
2021-03-20 09:14:01+00:00,308.0,14.38,304.0,17.25,12.25,47.59359,-54.27349
2021-03-20 09:24:01+00:00,312.0,14.22,306.0,17.53,12.25,47.59359,-54.27349
2021-03-20 09:34:01+00:00,302.0,14.52,303.0,17.11,12.25,47.59359,-54.27349
2021-03-20 09:44:01+00:00,314.0,8.92,319.0,11.2,12.25,47.59359,-54.27349
2021-03-20 09:54:01+00:00,335.0,6.83,328.0,8.43,12.25,47.59359,-54.27349
2021-03-20 10:04:01+00:00,319.0,6.08,321.0,7.15,12.25,47.59359,-54.27349
2021-03-20 10:14:01+00:00,311.0,5.55,313.0,6.1,12.25,47.59359,-54.27349
2021-03-20 10:24:01+00:00,316.0,5.02,322.0,6.1,12.25,47.59359,-54.27349
2021-03-20 10:34:01+00:00,326.0,5.41,305.0,7.89,12.25,47.59359,-54.27349
2021-03-20 10:44:01+00:00,334.0,5.8,327.0,8.2,12.25,47.59359,-54.27349
2021-03-20 10:54:01+00:00,318.0,5.3,307.0,9.57,12.25,47.59359,-54.27349
2021-03-20 11:04:01+00:00,327.0,5.9,332.0,7.84,12.25,47.59359,-54.27349
2021-03-20 11:14:01+00:00,315.0,7.63,309.0,9.6,13.84,47.59359,-54.27349
2021-03-20 11:24:01+00:00,326.0,9.39,315.0,12.11,13.84,47.59359,-54.27349
2021-03-20 11:34:01+00:00,325.0,7.15,309.0,8.78,13.84,47.59359,-54.27349
2021-03-20 11:44:01+00:00,324.0,5.59,312.0,8.18,13.84,47.59359,-54.27349
2021-03-20 11:54:01+00:00,324.0,8.24,313.0,10.36,13.84,47.59359,-54.27349
2021-03-20 12:04:01+00:00,331.0,7.5,319.0,9.69,13.84,47.59359,-54.27349
2021-03-20 13:14:01+00:00,321.0,4.83,324.0,6.63,13.84,47.59359,-54.27349
2021-03-20 13:24:01+00:00,326.0,6.16,310.0,8.33,13.84,47.59359,-54.27349
2021-03-20 13:34:01+00:00,302.0,9.05,292.0,11.58,13.84,47.59359,-54.27349
2021-03-20 13:44:01+00:00,318.0,6.52,306.0,9.07,13.84,47.59359,-54.27349
2021-03-20 13:54:01+00:00,299.0,5.59,294.0,8.22,13.84,47.59359,-54.27349
2021-03-20 14:04:01+00:00,313.0,7.2,309.0,9.38,13.84,47.59359,-54.27349
2021-03-20 14:14:01+00:00,331.0,7.79,336.0,8.89,14.4,47.59359,-54.27349
2021-03-20 14:24:01+00:00,327.0,5.75,311.0,9.67,14.4,47.59359,-54.27349
2021-03-20 14:34:01+00:00,297.0,7.51,281.0,10.58,14.4,47.59359,-54.27349
2021-03-20 14:44:01+00:00,285.0,8.02,284.0,9.21,14.4,47.59359,-54.27349
2021-03-20 14:54:01+00:00,278.0,8.67,275.0,12.28,14.4,47.59359,-54.27349
2021-03-20 15:04:01+00:00,298.0,7.04,298.0,9.07,14.4,47.59359,-54.27349
2021-03-20 15:14:01+00:00,312.0,6.48,307.0,9.04,13.92,47.59359,-54.27349
2021-03-20 15:24:01+00:00,288.0,8.57,290.0,10.93,13.92,47.59359,-54.27349
2021-03-20 15:34:01+00:00,316.0,4.8,304.0,8.46,13.92,47.59359,-54.27349
2021-03-20 15:44:01+00:00,332.0,5.49,321.0,6.74,13.92,47.59359,-54.27349
2021-03-20 15:54:01+00:00,329.0,4.58,318.0,5.45,13.92,47.59359,-54.27349
2021-03-20 16:04:01+00:00,304.0,5.73,299.0,8.55,13.92,47.59359,-54.27349
2021-03-20 16:14:01+00:00,321.0,5.91,306.0,8.9,13.84,47.59359,-54.27349
2021-03-20 16:24:01+00:00,328.0,4.45,288.0,7.61,13.84,47.59359,-54.27349
2021-03-20 16:34:01+00:00,310.0,5.21,303.0,7.96,13.84,47.59359,-54.27349
2021-03-20 16:44:01+00:00,317.0,5.65,304.0,9.0,13.84,47.59359,-54.27349
2021-03-20 16:54:01+00:00,315.0,5.23,314.0,6.45,13.84,47.59359,-54.27349
2021-03-20 17:04:01+00:00,319.0,4.93,323.0,7.37,13.84,47.59359,-54.27349
2021-03-20 17:14:01+00:00,306.0,7.29,302.0,9.36,13.76,47.59359,-54.27349
2021-03-20 17:24:01+00:00,322.0,5.48,317.0,6.94,13.76,47.59359,-54.27349
2021-03-20 17:34:01+00:00,319.0,5.25,306.0,7.62,13.76,47.59359,-54.27349
2021-03-20 17:44:01+00:00,315.0,5.83,323.0,7.14,13.76,47.59359,-54.27349
2021-03-20 17:54:01+00:00,316.0,5.0,317.0,5.95,13.76,47.59359,-54.27349
2021-03-20 18:04:01+00:00,314.0,5.93,311.0,7.57,13.76,47.59359,-54.27349
2021-03-20 18:14:01+00:00,296.0,6.68,306.0,9.34,13.76,47.59359,-54.27349
2021-03-20 18:24:01+00:00,295.0,8.96,289.0,11.85,13.76,47.59359,-54.27349
2021-03-20 18:34:01+00:00,299.0,11.41,296.0,14.8,13.76,47.59359,-54.27349
2021-03-20 18:44:01+00:00,302.0,9.97,294.0,13.92,13.76,47.59359,-54.27349
2021-03-20 18:54:01+00:00,300.0,8.22,297.0,9.21,13.76,47.59359,-54.27349
2021-03-20 19:04:01+00:00,286.0,9.72,283.0,14.17,13.76,47.59359,-54.27349
2021-03-20 19:14:01+00:00,309.0,7.92,302.0,9.23,14.08,47.59359,-54.27349
2021-03-20 19:24:01+00:00,301.0,8.83,286.0,13.41,14.08,47.59359,-54.27349
2021-03-20 19:34:01+00:00,289.0,11.51,288.0,14.67,14.08,47.59359,-54.27349
2021-03-20 19:44:01+00:00,301.0,8.46,299.0,10.02,14.08,47.59359,-54.27349
2021-03-20 19:54:01+00:00,305.0,8.39,309.0,10.25,14.08,47.59359,-54.27349
2021-03-20 20:04:01+00:00,305.0,9.2,311.0,10.65,14.08,47.59359,-54.27349
2021-03-20 20:14:01+00:00,298.0,9.14,295.0,10.7,13.84,47.59359,-54.27349
2021-03-20 20:24:01+00:00,295.0,7.91,289.0,8.99,13.84,47.59359,-54.27349
2021-03-20 20:34:01+00:00,310.0,8.3,314.0,9.49,13.84,47.59359,-54.27349
2021-03-20 20:44:01+00:00,301.0,7.45,308.0,8.45,13.84,47.59359,-54.27349
2021-03-20 20:54:01+00:00,299.0,6.98,298.0,8.0,13.84,47.59359,-54.27349
2021-03-20 21:04:01+00:00,287.0,7.72,290.0,8.63,13.84,47.59359,-54.27349
2021-03-20 21:14:01+00:00,289.0,8.19,284.0,9.32,13.6,47.59359,-54.27349
2021-03-20 21:24:01+00:00,288.0,8.18,283.0,9.2,13.6,47.59359,-54.27349
2021-03-20 21:34:01+00:00,298.0,7.39,296.0,8.24,13.6,47.59359,-54.27349
2021-03-20 21:44:01+00:00,289.0,6.99,288.0,7.92,13.6,47.59359,-54.27349
2021-03-20 21:54:01+00:00,295.0,7.84,301.0,8.85,13.6,47.59359,-54.27349
2021-03-20 22:04:01+00:00,274.0,6.49,275.0,7.78,13.6,47.59359,-54.27349
2021-03-20 22:14:01+00:00,279.0,6.17,282.0,7.33,12.97,47.59359,-54.27349
2021-03-20 22:24:01+00:00,273.0,6.69,278.0,7.73,12.97,47.59359,-54.27349
2021-03-20 22:34:01+00:00,279.0,7.11,282.0,7.76,12.97,47.59359,-54.27349
2021-03-20 22:44:01+00:00,285.0,6.79,288.0,7.8,12.97,47.59359,-54.27349
2021-03-20 22:54:01+00:00,284.0,6.02,288.0,7.39,12.97,47.59359,-54.27349
2021-03-20 23:04:01+00:00,289.0,6.16,293.0,7.2,12.97,47.59359,-54.27349
2021-03-20 23:14:01+00:00,280.0,6.67,279.0,7.99,12.57,47.59359,-54.27349
2021-03-20 23:24:01+00:00,271.0,5.87,273.0,7.19,12.57,47.59359,-54.27349
2021-03-20 23:34:01+00:00,283.0,6.73,285.0,7.42,12.57,47.59359,-54.27349
2021-03-20 23:44:01+00:00,291.0,7.16,292.0,7.67,12.57,47.59359,-54.27349
2021-03-20 23:54:01+00:00,280.0,7.42,285.0,8.17,12.57,47.59359,-54.27349
